Regional Weather Roundup
Issued by NWS Albany, NY

Home | Current Version | Previous Version | Text Only | Print | Product List | Glossary On
Versions: 1 2 3 4 5 6 7 8 9 10 11 12 13 14 15 16 17 18 19 20 21 22 23 24 25 26 27 28 29 30 31 32 33 34 35 36 37 38 39 40 41 42 43 44 45 46 47 48 49 50
607
ASUS41 KALY 232210
RWRALY

NEW YORK STATE HOURLY WEATHER ROUNDUP
NATIONAL WEATHER SERVICE ALBANY NY
500 PM EST THU FEB 23 2017

NOTE: "FAIR" INDICATES FEW OR NO CLOUDS BELOW 12,000 FEET WITH NO
SIGNIFICANT WEATHER AND/OR NO OBSTRUCTIONS TO VISIBILITY.

NYZ032-033-038>043-046>054-057>066-NYZ062>081-082-084-232300-
EAST


CITY           SKY/WX    TMP DP  RH WIND       PRES   REMARKS
ALBANY         PTCLDY    67  46  47 S8        29.72S
GLENS FALLS    PTCLDY    64  46  52 S9        29.69S
POUGHKEEPSIE   PTCLDY    66  49  54 S8        29.76R
NEWBURGH       PTCLDY    68  54  60 SW17G23   29.79R
MONTGOMERY     PTCLDY    67  52  58 SW12      29.77R
WHITE PLAINS   CLEAR     59  49  69 S10       29.81R
ISLIP          PTCLDY    52  48  86 SW12      29.84R
NEW YORK CITY  PTCLDY    63  51  65 S9        29.82R
CENTRAL PARK   CLEAR     61  51  70 S7        29.84R
$$

NYZ005>009-017-018-044>046-055-056-232300-
CENTRAL


CITY           SKY/WX    TMP DP  RH WIND       PRES   REMARKS
FULTON         CLEAR     63  50  62 W16G23    29.72R
SYRACUSE       MOCLDY    61  52  72 NW7       29.72R
ROME           MOCLDY    59  52  77 NW7       29.74R
ELMIRA         MOCLDY    67  49  52 SW16G23   29.76R
BINGHAMTON     PTCLDY    60  49  66 W10       29.78R
MONTICELLO     CLEAR     63  50  63 SW3       29.81R
$$

NYZ026>034-041>043-087-232300-
NORTH


CITY           SKY/WX    TMP DP  RH WIND       PRES   REMARKS
WATERTOWN      CLEAR     54  49  83 W13G22    29.70R HAZE
FORT DRUM      NOT AVBL
OGDENSBURG     FAIR      57  49  75 SW12G17   29.65R
MASSENA        CLEAR     58  50  75 SW12      29.63R
SARANAC LAKE   MOCLDY    53  48  83 SW10      29.66R
PLATTSBURGH    CLOUDY    63  47  55 NW5       29.64R
$$

NYZ001>004-010>016-019>021-085-232300-
WEST


CITY           SKY/WX    TMP DP  RH WIND       PRES   REMARKS
NIAGARA FALLS  CLEAR     61  49  64 SW12      29.75R
BUFFALO        MOCLDY    49  45  86 SW14      29.77R FOG
DUNKIRK        PTCLDY    56  49  77 SW10      29.78S
JAMESTOWN        N/A     57  48  72 NW9       29.79R
WELLSVILLE     PTCLDY    62  49  62 SW10      29.79R
ROCHESTER      PTCLDY    61  49  64 W16       29.74R
PENN YAN       MOCLDY    65  50  58 N12G17    29.75R
$$

             KEY
       WCI = WIND CHILL INDEX
       VSB = VISIBILITY
       HX  = HEAT INDEX
$$




USA.gov is the U.S. government's official web portal to all federal, state and local government web resources and services.